AEE57M LGAV-LUKK

Flight info

Callsign AEE57M
Flight time 1h 38m
Altitude 38000
Route KRO UT162 KOROS UN133 GIKAS DCT ATFIR/N0448F390 DCT ORTIP DCT KODRU T34 LIPTA
Aircraft A20N/M-SDE2E3FGHIRWXY/LB1

Departure

Time 2026-05-05 11:36
Airport Athens Eleftherios Venizelos International Airport (LGAV)

Arrival

Time 2026-05-05 13:14
Airport Chişinău International Airport (LUKK)
Time Latitude Longitude Altitude Speed Heading
2026-05-05 11:22 37.94026 23.95293 302 ft 0 kts 39°
2026-05-05 11:27 37.94022 23.95289 300 ft 4 kts 39°
2026-05-05 11:28 37.94002 23.95269 303 ft 2 kts 39°
2026-05-05 11:28 37.93985 23.95251 301 ft 4 kts 40°
2026-05-05 11:28 37.93969 23.95228 301 ft 4 kts 92°
2026-05-05 11:28 37.93978 23.95204 300 ft 3 kts 126°
2026-05-05 11:29 37.93980 23.95200 300 ft 0 kts 126°
2026-05-05 11:31 37.93972 23.95214 301 ft 5 kts 126°
2026-05-05 11:31 37.93938 23.95273 301 ft 11 kts 126°
2026-05-05 11:31 37.93888 23.95360 300 ft 14 kts 126°
2026-05-05 11:31 37.93826 23.95430 296 ft 12 kts 168°
2026-05-05 11:32 37.93750 23.95376 297 ft 14 kts 217°
2026-05-05 11:32 37.93667 23.95298 300 ft 16 kts 217°
2026-05-05 11:32 37.93573 23.95209 301 ft 18 kts 218°
2026-05-05 11:32 37.93471 23.95111 301 ft 19 kts 216°
2026-05-05 11:33 37.93359 23.95006 300 ft 21 kts 217°
2026-05-05 11:33 37.93255 23.94908 299 ft 16 kts 217°
2026-05-05 11:33 37.93174 23.94844 299 ft 12 kts 184°
2026-05-05 11:33 37.93137 23.94932 298 ft 15 kts 70°
2026-05-05 11:34 37.93156 23.95053 292 ft 12 kts 94°
2026-05-05 11:34 37.93181 23.95113 293 ft 0 kts 35°
2026-05-05 11:35 37.93186 23.95118 292 ft 3 kts 35°
2026-05-05 11:35 37.93306 23.95232 289 ft 54 kts 37°
2026-05-05 11:35 37.93797 23.95701 279 ft 119 kts 38°
2026-05-05 11:35 37.94598 23.96455 316 ft 164 kts 38°
2026-05-05 11:36 37.95528 23.97309 859 ft 165 kts 38°
2026-05-05 11:36 37.96463 23.98170 1503 ft 168 kts 37°
2026-05-05 11:36 37.97388 23.99092 2189 ft 170 kts 37°
2026-05-05 11:36 37.98303 24.00011 2936 ft 166 kts 36°
2026-05-05 11:37 37.99209 24.00929 3668 ft 169 kts 35°
2026-05-05 11:37 38.00201 24.01874 4183 ft 188 kts 32°
2026-05-05 11:37 38.01304 24.02875 4669 ft 207 kts 33°
2026-05-05 11:37 38.02540 24.04000 5071 ft 231 kts 33°
2026-05-05 11:38 38.03902 24.05255 5563 ft 253 kts 34°
2026-05-05 11:38 38.05372 24.06623 6193 ft 268 kts 34°
2026-05-05 11:38 38.06867 24.08028 7232 ft 264 kts 34°
2026-05-05 11:38 38.08349 24.09422 8214 ft 267 kts 34°
2026-05-05 11:39 38.09853 24.10832 9136 ft 270 kts 34°
2026-05-05 11:39 38.11353 24.12237 10076 ft 272 kts 34°
2026-05-05 11:39 38.12929 24.13712 10672 ft 288 kts 34°
2026-05-05 11:39 38.14617 24.15290 10958 ft 312 kts 34°
2026-05-05 11:40 38.16397 24.16958 11423 ft 327 kts 34°
2026-05-05 11:40 38.18239 24.18690 12204 ft 331 kts 34°
2026-05-05 11:40 38.20103 24.20444 13013 ft 336 kts 34°
2026-05-05 11:40 38.22015 24.22193 13781 ft 340 kts 28°
2026-05-05 11:41 38.24221 24.23243 14472 ft 340 kts
2026-05-05 11:41 38.26574 24.23259 15214 ft 340 kts 353°
2026-05-05 11:41 38.28930 24.22933 15975 ft 342 kts 352°
2026-05-05 11:41 38.31302 24.22562 16715 ft 345 kts 351°
2026-05-05 11:42 38.33697 24.22191 17424 ft 348 kts 352°
2026-05-05 11:42 38.36108 24.21832 18139 ft 351 kts 352°
2026-05-05 11:42 38.38553 24.21481 18776 ft 354 kts 352°
2026-05-05 11:42 38.41007 24.21136 19412 ft 356 kts 352°
2026-05-05 11:43 38.43475 24.20791 20044 ft 358 kts 352°
2026-05-05 11:43 38.45958 24.20444 20664 ft 360 kts 352°
2026-05-05 11:43 38.48453 24.20096 21274 ft 362 kts 352°
2026-05-05 11:43 38.50968 24.19744 21860 ft 365 kts 351°
2026-05-05 11:44 38.53506 24.19389 22420 ft 368 kts 351°
2026-05-05 11:44 38.56057 24.19031 23084 ft 369 kts 351°
2026-05-05 11:44 38.58590 24.18675 23640 ft 372 kts 351°
2026-05-05 11:44 38.61173 24.18313 24126 ft 375 kts 351°
2026-05-05 11:45 38.63793 24.17945 24623 ft 376 kts 351°
2026-05-05 11:45 38.66385 24.17581 25093 ft 378 kts 351°
2026-05-05 11:45 38.69007 24.17212 25554 ft 381 kts 351°
2026-05-05 11:45 38.71655 24.16839 26005 ft 383 kts 351°
2026-05-05 11:46 38.74311 24.16464 26433 ft 385 kts 351°
2026-05-05 11:46 38.76981 24.16088 26887 ft 387 kts 351°
2026-05-05 11:46 38.79673 24.15707 27276 ft 390 kts 351°
2026-05-05 11:46 38.82383 24.15324 27687 ft 392 kts 351°
2026-05-05 11:47 38.85104 24.14939 28097 ft 394 kts 351°
2026-05-05 11:47 38.87807 24.14557 28471 ft 396 kts 351°
2026-05-05 11:47 38.90557 24.14168 28854 ft 398 kts 351°
2026-05-05 11:47 38.93322 24.13776 29211 ft 400 kts 351°
2026-05-05 11:48 38.98888 24.12986 29902 ft 405 kts 351°
2026-05-05 11:48 39.01700 24.12586 30188 ft 408 kts 351°
2026-05-05 11:48 39.04527 24.12184 30489 ft 409 kts 351°
2026-05-05 11:49 39.07377 24.11779 30806 ft 411 kts 351°
2026-05-05 11:49 39.10224 24.11373 31108 ft 413 kts 351°
2026-05-05 11:49 39.13088 24.10966 31459 ft 413 kts 351°
2026-05-05 11:49 39.15907 24.10564 31849 ft 412 kts 351°
2026-05-05 11:50 39.18751 24.10158 32238 ft 411 kts 351°
2026-05-05 11:50 39.21602 24.09751 32631 ft 410 kts 351°
2026-05-05 11:50 39.24435 24.09346 32992 ft 409 kts 351°
2026-05-05 11:50 39.27261 24.08941 33372 ft 408 kts 351°
2026-05-05 11:51 39.30087 24.08537 33725 ft 407 kts 351°
2026-05-05 11:51 39.32899 24.08133 34077 ft 407 kts 351°
2026-05-05 11:51 39.35712 24.07730 34371 ft 406 kts 351°
2026-05-05 11:51 39.38522 24.07326 34638 ft 406 kts 351°
2026-05-05 11:52 39.41328 24.06922 34904 ft 406 kts 351°
2026-05-05 11:52 39.44132 24.06519 35151 ft 405 kts 351°
2026-05-05 11:52 39.46941 24.06114 35410 ft 405 kts 351°
2026-05-05 11:52 39.49691 24.05718 35632 ft 405 kts 351°
2026-05-05 11:53 39.52499 24.05313 35860 ft 405 kts 351°
2026-05-05 11:53 39.55302 24.04908 36077 ft 405 kts 351°
2026-05-05 11:53 39.58099 24.04504 36297 ft 405 kts 351°
2026-05-05 11:53 39.60902 24.04098 36505 ft 404 kts 351°
2026-05-05 11:54 39.63693 24.03694 36717 ft 405 kts 351°
2026-05-05 11:54 39.66499 24.03287 36880 ft 405 kts 351°
2026-05-05 11:54 39.69272 24.02885 37070 ft 405 kts 351°
2026-05-05 11:54 39.72086 24.02477 37262 ft 405 kts 351°
2026-05-05 11:55 39.74887 24.02071 37450 ft 405 kts 351°
2026-05-05 11:55 39.77693 24.01663 37619 ft 405 kts 351°
2026-05-05 11:55 39.79545 24.01394 37738 ft 405 kts 351°
2026-05-05 11:55 39.82340 24.00987 37908 ft 405 kts 351°
2026-05-05 11:56 39.85141 24.00580 38065 ft 405 kts 351°
2026-05-05 11:56 39.87949 24.00170 38071 ft 406 kts 351°
2026-05-05 11:56 39.93554 23.99352 38069 ft 404 kts 351°
2026-05-05 11:57 39.99154 23.98534 38067 ft 405 kts 351°
2026-05-05 11:57 40.04754 23.97714 38066 ft 405 kts 351°
2026-05-05 11:58 40.10346 23.96893 38073 ft 408 kts 351°
2026-05-05 11:58 40.15989 23.96065 38053 ft 406 kts 351°
2026-05-05 11:59 40.20649 23.95381 38070 ft 406 kts 351°
2026-05-05 11:59 40.27521 23.94368 38065 ft 406 kts 351°
2026-05-05 12:00 40.33132 23.93540 38065 ft 405 kts 351°
2026-05-05 12:00 40.38744 23.92711 38065 ft 406 kts 351°
2026-05-05 12:01 40.44356 23.91880 38062 ft 406 kts 351°
2026-05-05 12:01 40.49944 23.91050 38053 ft 406 kts 351°
2026-05-05 12:02 40.55565 23.90214 38055 ft 406 kts 351°
2026-05-05 12:02 40.61186 23.89378 38060 ft 407 kts 351°
2026-05-05 12:03 40.66814 23.88539 38050 ft 407 kts 351°
2026-05-05 12:03 40.72455 23.87696 38041 ft 407 kts 351°
2026-05-05 12:04 40.78054 23.86859 38042 ft 408 kts 351°
2026-05-05 12:04 40.83703 23.86013 38052 ft 408 kts 351°
2026-05-05 12:05 40.89353 23.85165 38044 ft 409 kts 351°
2026-05-05 12:05 40.95364 23.84260 38048 ft 410 kts 351°
2026-05-05 12:06 41.00998 23.83412 38046 ft 410 kts 351°
2026-05-05 12:06 41.06665 23.82557 38032 ft 410 kts 351°
2026-05-05 12:07 41.12338 23.81700 38029 ft 410 kts 351°
2026-05-05 12:07 41.18014 23.80840 38028 ft 411 kts 351°
2026-05-05 12:08 41.23690 23.79979 38027 ft 410 kts 351°
2026-05-05 12:08 41.29357 23.79119 38026 ft 410 kts 351°
2026-05-05 12:09 41.35039 23.78292 38007 ft 411 kts 354°
2026-05-05 12:09 41.40782 23.78754 38070 ft 419 kts
2026-05-05 12:10 41.45458 23.80555 38235 ft 425 kts 18°
2026-05-05 12:10 41.48175 23.82129 38370 ft 426 kts 20°
2026-05-05 12:10 41.50894 23.83705 38514 ft 426 kts 19°
2026-05-05 12:11 41.54503 23.85786 38712 ft 426 kts 19°
2026-05-05 12:11 41.56341 23.86848 38792 ft 426 kts 19°
2026-05-05 12:11 41.59058 23.88423 38909 ft 426 kts 19°
2026-05-05 12:11 41.61781 23.90006 38980 ft 427 kts 20°
2026-05-05 12:12 41.67203 23.93166 39051 ft 427 kts 20°
2026-05-05 12:12 41.72628 23.96336 39044 ft 425 kts 20°
2026-05-05 12:13 41.78055 23.99511 39050 ft 426 kts 20°
2026-05-05 12:13 41.83476 24.02689 39062 ft 426 kts 20°
2026-05-05 12:14 41.88893 24.05870 39050 ft 425 kts 20°
2026-05-05 12:14 41.94304 24.09055 39047 ft 425 kts 20°
2026-05-05 12:15 41.99715 24.12244 39044 ft 424 kts 20°
2026-05-05 12:15 42.05131 24.15441 39038 ft 424 kts 20°
2026-05-05 12:16 42.10502 24.18620 39039 ft 424 kts 20°
2026-05-05 12:16 42.15913 24.21828 39035 ft 424 kts 20°
2026-05-05 12:17 42.21316 24.25037 39027 ft 424 kts 20°
2026-05-05 12:17 42.26722 24.28254 39028 ft 424 kts 20°
2026-05-05 12:18 42.32121 24.31472 39024 ft 424 kts 20°
2026-05-05 12:18 42.37470 24.34667 39021 ft 424 kts 20°
2026-05-05 12:19 42.42877 24.37902 39020 ft 425 kts 20°
2026-05-05 12:19 42.48285 24.41144 39026 ft 425 kts 20°
2026-05-05 12:20 42.53700 24.44396 39017 ft 426 kts 21°
2026-05-05 12:20 42.59119 24.47657 39018 ft 427 kts 21°
2026-05-05 12:21 42.64561 24.50939 39032 ft 428 kts 21°
2026-05-05 12:21 42.69974 24.54209 39038 ft 430 kts 21°
2026-05-05 12:22 42.75449 24.57522 39045 ft 431 kts 21°
2026-05-05 12:22 42.80927 24.60844 39053 ft 432 kts 21°
2026-05-05 12:23 42.86424 24.64185 39057 ft 432 kts 21°
2026-05-05 12:23 42.91894 24.67515 39046 ft 430 kts 21°
2026-05-05 12:24 42.97361 24.70851 39045 ft 430 kts 21°
2026-05-05 12:24 43.02827 24.74191 39051 ft 430 kts 21°
2026-05-05 12:25 43.08250 24.77512 39041 ft 429 kts 22°
2026-05-05 12:25 43.13707 24.80861 39037 ft 430 kts 22°
2026-05-05 12:26 43.19168 24.84218 39049 ft 430 kts 22°
2026-05-05 12:26 43.24643 24.87590 39038 ft 431 kts 22°
2026-05-05 12:27 43.30116 24.90969 39040 ft 431 kts 22°
2026-05-05 12:27 43.35594 24.94358 39018 ft 431 kts 22°
2026-05-05 12:28 43.41041 24.97733 39027 ft 429 kts 22°
2026-05-05 12:28 43.46489 25.01116 39027 ft 429 kts 22°
2026-05-05 12:29 43.51939 25.04507 39028 ft 429 kts 22°
2026-05-05 12:29 43.57379 25.07897 39028 ft 428 kts 22°
2026-05-05 12:30 43.62774 25.11267 39020 ft 428 kts 22°
2026-05-05 12:30 43.68196 25.14661 39016 ft 428 kts 22°
2026-05-05 12:31 43.73608 25.18055 39013 ft 427 kts 22°
2026-05-05 12:31 43.79027 25.21460 39005 ft 427 kts 22°
2026-05-05 12:32 43.84437 25.24866 39004 ft 427 kts 22°
2026-05-05 12:32 43.89852 25.28282 39009 ft 427 kts 22°
2026-05-05 12:33 43.95177 25.31818 39013 ft 428 kts 27°
2026-05-05 12:33 44.00182 25.36354 39017 ft 431 kts 35°
2026-05-05 12:34 44.04775 25.41732 39020 ft 432 kts 38°
2026-05-05 12:34 44.09337 25.47162 39001 ft 433 kts 38°
2026-05-05 12:35 44.13913 25.52640 39008 ft 434 kts 39°
2026-05-05 12:35 44.18482 25.58141 39020 ft 435 kts 39°
2026-05-05 12:36 44.23056 25.63663 39019 ft 436 kts 39°
2026-05-05 12:36 44.27636 25.69204 39031 ft 436 kts 39°
2026-05-05 12:37 44.32222 25.74765 39027 ft 437 kts 39°
2026-05-05 12:37 44.36803 25.80333 39021 ft 435 kts 39°
2026-05-05 12:38 44.41350 25.85870 39018 ft 433 kts 39°
2026-05-05 12:38 44.45894 25.91415 39017 ft 433 kts 39°
2026-05-05 12:39 44.50436 25.96970 39019 ft 433 kts 39°
2026-05-05 12:39 44.54971 26.02529 39026 ft 433 kts 39°
2026-05-05 12:40 44.59508 26.08102 39022 ft 433 kts 39°
2026-05-05 12:40 44.64038 26.13678 39030 ft 433 kts 39°
2026-05-05 12:41 44.68551 26.19244 39024 ft 433 kts 40°
2026-05-05 12:41 44.73074 26.24836 39038 ft 433 kts 40°
2026-05-05 12:42 44.77597 26.30440 39026 ft 433 kts 40°
2026-05-05 12:42 44.82119 26.36054 39021 ft 433 kts 40°
2026-05-05 12:43 44.86631 26.41668 39026 ft 433 kts 40°
2026-05-05 12:43 44.91141 26.47292 39016 ft 433 kts 40°
2026-05-05 12:44 44.95660 26.52940 39015 ft 433 kts 40°
2026-05-05 12:44 45.00135 26.58546 39015 ft 433 kts 40°
2026-05-05 12:45 45.04644 26.64205 39009 ft 433 kts 40°
2026-05-05 12:45 45.09155 26.69881 39009 ft 434 kts 40°
2026-05-05 12:46 45.13663 26.75565 39012 ft 434 kts 40°
2026-05-05 12:46 45.18182 26.81275 39016 ft 435 kts 40°
2026-05-05 12:47 45.22694 26.86987 39025 ft 435 kts 41°
2026-05-05 12:47 45.27206 26.92714 39027 ft 435 kts 41°
2026-05-05 12:48 45.31718 26.98455 39027 ft 436 kts 41°
2026-05-05 12:48 45.36210 27.04181 39021 ft 436 kts 41°
2026-05-05 12:49 45.38461 27.07056 38860 ft 434 kts 41°
2026-05-05 12:49 45.40702 27.09921 38623 ft 432 kts 41°
2026-05-05 12:49 45.42932 27.12776 38359 ft 431 kts 41°
2026-05-05 12:49 45.45160 27.15630 38070 ft 431 kts 41°
2026-05-05 12:50 45.47393 27.18494 37796 ft 432 kts 41°
2026-05-05 12:50 45.49622 27.21356 37523 ft 431 kts 41°
2026-05-05 12:50 45.51855 27.24226 37253 ft 431 kts 41°
2026-05-05 12:50 45.54080 27.27091 36987 ft 431 kts 41°
2026-05-05 12:51 45.56306 27.29958 36647 ft 432 kts 41°
2026-05-05 12:51 45.58539 27.32839 35964 ft 435 kts 41°
2026-05-05 12:51 45.60796 27.35752 35149 ft 439 kts 41°
2026-05-05 12:51 45.63060 27.38679 34435 ft 439 kts 41°
2026-05-05 12:52 45.65327 27.41613 33649 ft 440 kts 41°
2026-05-05 12:52 45.67594 27.44551 32901 ft 439 kts 41°
2026-05-05 12:52 45.69853 27.47481 32127 ft 438 kts 41°
2026-05-05 12:52 45.72079 27.50372 31373 ft 437 kts 41°
2026-05-05 12:53 45.74319 27.53284 30838 ft 432 kts 41°
2026-05-05 12:53 45.76529 27.56162 30276 ft 427 kts 41°
2026-05-05 12:53 45.78717 27.59013 29687 ft 422 kts 41°
2026-05-05 12:53 45.80869 27.61821 29139 ft 415 kts 41°
2026-05-05 12:54 45.85083 27.67328 28065 ft 404 kts 42°
2026-05-05 12:54 45.87145 27.70026 27538 ft 399 kts 42°
2026-05-05 12:54 45.89183 27.72696 27010 ft 394 kts 42°
2026-05-05 12:55 45.91197 27.75338 26477 ft 390 kts 42°
2026-05-05 12:55 45.93188 27.77951 25956 ft 386 kts 42°
2026-05-05 12:55 45.95159 27.80542 25431 ft 382 kts 42°
2026-05-05 12:55 45.96457 27.82249 25085 ft 380 kts 42°
2026-05-05 12:56 45.98404 27.84812 24560 ft 377 kts 42°
2026-05-05 12:56 46.00330 27.87350 24035 ft 374 kts 42°
2026-05-05 12:56 46.02867 27.90694 23299 ft 371 kts 42°
2026-05-05 12:56 46.04756 27.93189 22784 ft 366 kts 42°
2026-05-05 12:57 46.06019 27.94858 22440 ft 363 kts 42°
2026-05-05 12:57 46.07867 27.97304 21913 ft 359 kts 42°
2026-05-05 12:57 46.09696 27.99725 21418 ft 355 kts 42°
2026-05-05 12:57 46.11508 28.02126 20907 ft 351 kts 42°
2026-05-05 12:58 46.13297 28.04498 20399 ft 349 kts 42°
2026-05-05 12:58 46.15074 28.06854 19900 ft 346 kts 42°
2026-05-05 12:58 46.16816 28.09167 19392 ft 343 kts 42°
2026-05-05 12:58 46.18569 28.11494 18914 ft 341 kts 42°
2026-05-05 12:59 46.20409 28.13641 18394 ft 340 kts 36°
2026-05-05 12:59 46.22330 28.15616 17872 ft 337 kts 36°
2026-05-05 12:59 46.24238 28.17570 17366 ft 334 kts 36°
2026-05-05 13:00 46.27990 28.21427 16385 ft 328 kts 36°
2026-05-05 13:00 46.29839 28.23336 15890 ft 325 kts 36°
2026-05-05 13:01 46.35308 28.29000 14448 ft 319 kts 35°
2026-05-05 13:01 46.37109 28.30869 13972 ft 318 kts 35°
2026-05-05 13:01 46.38903 28.32729 13466 ft 316 kts 35°
2026-05-05 13:01 46.40682 28.34577 12997 ft 313 kts 35°
2026-05-05 13:02 46.42420 28.36382 12537 ft 310 kts 35°
2026-05-05 13:02 46.44175 28.38206 12037 ft 309 kts 35°
2026-05-05 13:02 46.45914 28.40016 11590 ft 306 kts 35°
2026-05-05 13:02 46.47640 28.41813 11142 ft 304 kts 35°
2026-05-05 13:03 46.49352 28.43598 10685 ft 302 kts 35°
2026-05-05 13:03 46.51051 28.45370 10299 ft 298 kts 35°
2026-05-05 13:03 46.52698 28.47089 10191 ft 285 kts 35°
2026-05-05 13:03 46.54272 28.48732 9976 ft 272 kts 36°
2026-05-05 13:04 46.55789 28.50318 9740 ft 266 kts 36°
2026-05-05 13:04 46.57296 28.51894 9601 ft 268 kts 36°
2026-05-05 13:04 46.58808 28.53478 9390 ft 268 kts 36°
2026-05-05 13:04 46.60315 28.55058 9047 ft 267 kts 36°
2026-05-05 13:05 46.61922 28.56366 8700 ft 264 kts 18°
2026-05-05 13:05 46.63736 28.56599 8356 ft 264 kts 354°
2026-05-05 13:05 46.65453 28.55776 8018 ft 264 kts 340°
2026-05-05 13:05 46.67150 28.54700 7667 ft 262 kts 340°
2026-05-05 13:06 46.68813 28.53646 7327 ft 260 kts 340°
2026-05-05 13:06 46.70445 28.52615 6990 ft 258 kts 340°
2026-05-05 13:06 46.72091 28.51595 6652 ft 255 kts 343°
2026-05-05 13:06 46.73811 28.51246 6318 ft 248 kts
2026-05-05 13:07 46.75450 28.51923 5979 ft 244 kts 23°
2026-05-05 13:07 46.77014 28.52866 5650 ft 242 kts 23°
2026-05-05 13:07 46.78575 28.53796 5334 ft 245 kts 22°
2026-05-05 13:07 46.80286 28.54809 4999 ft 283 kts 22°
2026-05-05 13:08 46.82143 28.55908 4934 ft 290 kts 22°
2026-05-05 13:08 46.83994 28.57003 4894 ft 283 kts 22°
2026-05-05 13:08 46.85765 28.58051 4795 ft 273 kts 22°
2026-05-05 13:08 46.87487 28.59108 4653 ft 262 kts 24°
2026-05-05 13:09 46.89129 28.60156 4493 ft 253 kts 24°
2026-05-05 13:09 46.90708 28.61211 4293 ft 245 kts 33°
2026-05-05 13:09 46.91783 28.63006 4072 ft 232 kts 68°
2026-05-05 13:09 46.92165 28.65266 3778 ft 227 kts 83°
2026-05-05 13:10 46.92269 28.67530 3464 ft 220 kts 89°
2026-05-05 13:10 46.92300 28.69726 3177 ft 213 kts 88°
2026-05-05 13:10 46.92346 28.71855 2906 ft 205 kts 89°
2026-05-05 13:10 46.92387 28.73875 2666 ft 195 kts 89°
2026-05-05 13:11 46.92426 28.75826 2392 ft 189 kts 89°
2026-05-05 13:11 46.92465 28.77695 2144 ft 177 kts 89°
2026-05-05 13:11 46.92500 28.79382 1922 ft 156 kts 89°
2026-05-05 13:11 46.92534 28.80888 1688 ft 142 kts 89°
2026-05-05 13:12 46.92574 28.82285 1480 ft 138 kts 89°
2026-05-05 13:12 46.92600 28.83688 1308 ft 136 kts 90°
2026-05-05 13:12 46.92621 28.85071 1146 ft 136 kts 89°
2026-05-05 13:12 46.92644 28.86436 996 ft 133 kts 90°
2026-05-05 13:13 46.92671 28.87776 834 ft 133 kts 90°
2026-05-05 13:13 46.92696 28.89132 658 ft 134 kts 89°
2026-05-05 13:13 46.92727 28.90482 482 ft 132 kts 90°
2026-05-05 13:13 46.92752 28.91779 407 ft 111 kts 88°
2026-05-05 13:14 46.92771 28.92615 408 ft 53 kts 89°
2026-05-05 13:14 46.92780 28.93122 408 ft 47 kts 88°
2026-05-05 13:14 46.92793 28.93394 408 ft 15 kts 60°
2026-05-05 13:14 46.92891 28.93416 408 ft 16 kts 358°
2026-05-05 13:15 46.93012 28.93419 408 ft 18 kts
2026-05-05 13:15 46.93114 28.93437 410 ft 11 kts
2026-05-05 13:15 46.93150 28.93443 410 ft 7 kts
2026-05-05 13:15 46.93214 28.93454 409 ft 12 kts
2026-05-05 13:16 46.93253 28.93461 408 ft 0 kts
2026-05-05 13:17 46.93258 28.93462 404 ft 3 kts
2026-05-05 13:17 46.93291 28.93468 408 ft 7 kts
2026-05-05 13:17 46.93322 28.93473 408 ft 0 kts
2026-05-05 13:17 46.93322 28.93474 408 ft 0 kts
2026-05-05 13:18 46.93324 28.93475 408 ft 0 kts 13°
2026-05-05 13:18 46.93325 28.93476 408 ft 0 kts 19°
2026-05-05 13:18 46.93331 28.93491 408 ft 4 kts 74°
2026-05-05 13:18 46.93328 28.93512 408 ft 3 kts 96°
2026-05-05 13:19 46.93351 28.93543 406 ft 5 kts 15°
2026-05-05 13:19 46.93370 28.93545 408 ft 1 kts
2026-05-05 13:19 46.93374 28.93546 404 ft 0 kts
2026-05-05 13:19 46.93375 28.93546 404 ft 0 kts
2026-05-05 13:22 46.92342 28.71637 2928 ft 206 kts 89°
2026-05-05 13:22 46.92683 28.88454 747 ft 133 kts 90°
2026-05-05 13:22 46.92710 28.89813 572 ft 132 kts 89°
2026-05-05 13:22 46.92742 28.91156 410 ft 130 kts 89°
2026-05-05 13:23 46.92754 28.91856 408 ft 104 kts 87°
2026-05-05 13:23 46.92732 28.90737 451 ft 133 kts 90°
2026-05-05 13:23 46.92756 28.91968 409 ft 100 kts 89°